Weather History for KJOT - March, 2013

Change the Weather History Date:

Monday, March 11, 2013

  Actual Average (KLOT) Record (KLOT)
Temperature  
Mean Temperature 40 °F 37 °F  
Max Temperature 47 °F 46 °F 68 °F (2012)
Min Temperature 32 °F 28 °F 11 °F (1998)
Degree Days  
Heating Degree Days 26 28  
Month to date heating degree days 333  
Since 1 July heating degree days 5061  
Cooling Degree Days 0 0  
Month to date cooling degree days 0  
Year to date cooling degree days 0  
Moisture  
Dew Point 37 °F    
Average Humidity 94    
Maximum Humidity 100    
Minimum Humidity 87    
Precipitation  
Precipitation 0.04 in 0.08 in 0.50 in (2010)
Month to date precipitation 0.95  
Year to date precipitation 4.66  
Snow  
Snow 0.00 in 0.20 in 2.00 in (1993)
Month to date snowfall 2.4  
Since 1 July snowfall 29.8  
Snow Depth -    
Sea Level Pressure  
Sea Level Pressure 29.65 in    
Wind  
Wind Speed 7 mph (WSW)    
Max Wind Speed 15 mph    
Max Gust Speed 21 mph    
Visibility 5 miles    
Events Rain , Snow    
T = Trace of Precipitation, MM = Missing Value Source: NWS Daily Summary

Daily Weather History Graph

Daily Weather History Graph

Search for Another Location

Airport or City:

Trip Planner

Search our weather history database for the weather conditions in past years. The results will help you decide how hot, cold, wet, or windy it might be!

Date:

Astronomy

Mar. 11, 2013 Rise Set
Actual Time 7:10 AM CDT 6:55 PM CDT
Civil Twilight 6:43 AM CDT 7:22 PM CDT
Nautical Twilight 6:11 AM CDT 7:54 PM CDT
Astronomical Twilight 5:38 AM CDT 8:27 PM CDT
Moon 6:44 AM CDT (3/11) 7:07 PM CDT (3/11)
Length of Visible Light 12h 39m
Length of Day
11h 44m
Waning Crescent, 0% of the Moon is Illuminated
Mar 11
Waning Crescent
Mar 11
New
Mar 19
First Quarter
Mar 27
Full
Apr 2
Last Quarter

Hourly Weather History & Observations

Time (CDT) Temp. Windchill Dew Point Humidity Pressure Visibility Wind Dir Wind Speed Gust Speed Precip Events Conditions
12:15 AM 47.3 °F - 45.9 °F 95% 29.64 in 7.0 mi SSW 5.8 mph - N/A   Overcast
12:35 AM 47.3 °F - 45.7 °F 94% 29.64 in 5.0 mi SSW 6.9 mph - N/A   Overcast
12:55 AM 47.3 °F - 45.9 °F 95% 29.64 in 5.0 mi SSW 6.9 mph - N/A   Overcast
1:15 AM 47.3 °F - 45.7 °F 94% 29.64 in 5.0 mi SW 8.1 mph - N/A   Overcast
1:35 AM 46.6 °F - 45.3 °F 95% 29.64 in 4.0 mi SW 4.6 mph - N/A   Overcast
1:55 AM 46.0 °F 44.8 °F 45.0 °F 96% 29.64 in 3.0 mi SW 3.5 mph - N/A   Overcast
2:15 AM 45.7 °F - 44.8 °F 97% 29.64 in 2.5 mi Calm Calm - N/A   Overcast
2:35 AM 45.5 °F 44.2 °F 44.8 °F 97% 29.63 in 2.0 mi SSW 3.5 mph - N/A   Light Drizzle
2:55 AM 45.5 °F 44.2 °F 44.6 °F 97% 29.63 in 2.5 mi WSW 3.5 mph - N/A   Overcast
3:35 AM 44.6 °F - 43.9 °F 97% 29.61 in 1.8 mi Calm Calm - N/A   Overcast
3:55 AM 44.8 °F - 44.2 °F 98% 29.60 in 1.8 mi Calm Calm - N/A   Overcast
4:15 AM 44.8 °F - 44.2 °F 98% 29.59 in 2.0 mi Calm Calm - N/A   Overcast
4:35 AM 44.8 °F - 44.2 °F 98% 29.59 in 1.8 mi Calm Calm - N/A   Overcast
4:55 AM 45.0 °F - 44.6 °F 99% 29.59 in 1.8 mi Calm Calm - N/A   Overcast
5:15 AM 45.0 °F - 44.6 °F 99% 29.58 in 1.8 mi Calm Calm - N/A   Overcast
5:35 AM 45.1 °F - 44.6 °F 98% 29.59 in 2.5 mi Calm Calm - N/A   Overcast
5:55 AM 44.6 °F 42.2 °F 44.1 °F 98% 29.60 in 1.0 mi SSW 4.6 mph - N/A   Light Drizzle
6:15 AM 44.4 °F 41.2 °F 43.7 °F 97% 29.61 in 1.2 mi SW 5.8 mph - N/A   Overcast
6:55 AM 43.0 °F 37.2 °F 42.6 °F 99% 29.62 in 2.0 mi SW 10.4 mph - 0.03 in Rain Light Rain
7:15 AM 41.7 °F 35.6 °F 41.0 °F 97% 29.62 in 3.0 mi WSW 10.4 mph 16.1 mph N/A Rain Light Rain
7:35 AM 39.7 °F 35.6 °F 38.8 °F 97% 29.62 in 7.0 mi WSW 5.8 mph - 0.01 in   Overcast
7:55 AM 39.4 °F 34.5 °F 38.3 °F 96% 29.63 in 10.0 mi WSW 6.9 mph - 0.01 in   Overcast
8:15 AM 38.5 °F 32.1 °F 37.0 °F 95% 29.63 in 7.0 mi WSW 9.2 mph - N/A   Overcast
8:35 AM 38.3 °F 33.9 °F 36.9 °F 95% 29.61 in 5.0 mi West 5.8 mph - N/A   Drizzle
8:55 AM 37.8 °F 32.5 °F 36.7 °F 96% 29.61 in 5.0 mi WSW 6.9 mph - N/A   Overcast
9:15 AM 37.8 °F 31.3 °F 36.7 °F 96% 29.61 in 7.0 mi WSW 9.2 mph - N/A   Overcast
9:35 AM 37.4 °F 32.1 °F 37.4 °F 100% 29.61 in 7.0 mi WSW 6.9 mph - N/A   Overcast
9:55 AM 37.9 °F 32.1 °F 36.7 °F 95% 29.61 in 10.0 mi WSW 8.1 mph - N/A   Overcast
10:15 AM 37.8 °F 30.7 °F 36.5 °F 95% 29.61 in 4.0 mi WSW 10.4 mph 16.1 mph N/A   Overcast
10:35 AM 37.0 °F 29.8 °F 36.1 °F 97% 29.61 in 1.2 mi WSW 10.4 mph - N/A   Overcast
10:55 AM 36.5 °F 28.7 °F 35.6 °F 97% 29.61 in 3.0 mi WSW 11.5 mph 17.3 mph N/A   Overcast
11:15 AM 36.1 °F 28.7 °F 35.1 °F 96% 29.61 in 2.5 mi WSW 10.4 mph - N/A   Overcast
11:35 AM 35.6 °F 27.1 °F 34.7 °F 97% 29.61 in 3.0 mi WSW 12.7 mph 17.3 mph N/A   Overcast
11:55 AM 35.8 °F 27.8 °F 34.2 °F 94% 29.60 in 7.0 mi WSW 11.5 mph - N/A   Overcast
12:15 PM 35.6 °F 29.9 °F 34.2 °F 94% 29.61 in 3.0 mi SW 6.9 mph - N/A   Overcast
12:35 PM 35.6 °F 29.2 °F 34.2 °F 94% 29.60 in 3.0 mi SW 8.1 mph 16.1 mph N/A   Light Drizzle
12:55 PM 35.6 °F 29.2 °F 34.0 °F 94% 29.59 in 2.5 mi SW 8.1 mph - N/A   Drizzle
1:35 PM 35.6 °F 29.9 °F 34.2 °F 94% 29.58 in 2.5 mi WSW 6.9 mph - N/A   Drizzle
1:55 PM 35.8 °F 28.8 °F 34.2 °F 94% 29.58 in 3.0 mi WSW 9.2 mph - N/A   Drizzle
2:15 PM 35.8 °F 27.8 °F 34.3 °F 94% 29.57 in 2.5 mi WSW 11.5 mph - N/A   Drizzle
2:35 PM 35.8 °F 28.3 °F 34.5 °F 95% 29.57 in 4.0 mi WSW 10.4 mph 17.3 mph N/A Rain Light Rain
2:55 PM 35.6 °F 26.6 °F 34.0 °F 94% 29.58 in 4.0 mi WSW 13.8 mph 19.6 mph N/A   Drizzle
3:15 PM 35.1 °F 27.4 °F 33.4 °F 94% 29.59 in 5.0 mi WSW 10.4 mph 17.3 mph N/A   Drizzle
3:35 PM 34.9 °F 27.7 °F 33.3 °F 94% 29.60 in 4.0 mi WSW 9.2 mph - N/A   Drizzle
3:55 PM 35.1 °F 29.3 °F 33.6 °F 94% 29.61 in 7.0 mi WSW 6.9 mph - N/A   Drizzle
4:15 PM 35.1 °F 30.1 °F 33.4 °F 94% 29.62 in 10.0 mi West 5.8 mph - N/A   Overcast
5:15 PM 33.6 °F 25.6 °F 32.0 °F 94% 29.65 in 2.5 mi West 10.4 mph 20.7 mph N/A Snow Light Snow
5:35 PM 33.4 °F 23.9 °F 32.0 °F 94% 29.66 in 4.0 mi West 13.8 mph 19.6 mph N/A Snow Light Snow
5:55 PM 33.3 °F 24.1 °F 32.0 °F 95% 29.67 in 3.0 mi WSW 12.7 mph 16.1 mph N/A Snow Light Snow
6:15 PM 33.3 °F 24.1 °F 31.5 °F 93% 29.68 in 10.0 mi West 12.7 mph 18.4 mph N/A   Overcast
6:35 PM 33.4 °F 25.9 °F 30.9 °F 90% 29.70 in 10.0 mi West 9.2 mph 17.3 mph N/A   Overcast
6:55 PM 33.4 °F 27.3 °F 30.9 °F 90% 29.71 in 10.0 mi WSW 6.9 mph - N/A   Overcast
7:15 PM 33.3 °F 26.4 °F 30.9 °F 91% 29.72 in 10.0 mi West 8.1 mph - N/A   Overcast
7:35 PM 33.1 °F 24.9 °F 30.2 °F 89% 29.73 in 10.0 mi West 10.4 mph - N/A   Overcast
7:55 PM 32.9 °F 25.3 °F 30.2 °F 90% 29.74 in 10.0 mi West 9.2 mph - N/A   Overcast
8:15 PM 32.9 °F 24.7 °F 30.2 °F 90% 29.74 in 10.0 mi WSW 10.4 mph 16.1 mph N/A   Overcast
8:35 PM 32.9 °F 24.7 °F 30.0 °F 89% 29.75 in 10.0 mi West 10.4 mph 17.3 mph N/A   Overcast
8:55 PM 32.9 °F 25.3 °F 30.0 °F 89% 29.76 in 10.0 mi West 9.2 mph - N/A   Overcast
9:15 PM 32.9 °F 25.3 °F 30.2 °F 90% 29.76 in 10.0 mi WSW 9.2 mph 16.1 mph N/A   Overcast
9:35 PM 32.2 °F 25.0 °F 30.6 °F 94% 29.77 in 4.0 mi West 8.1 mph 16.1 mph N/A   Overcast
9:55 PM 32.2 °F 23.2 °F 30.2 °F 92% 29.78 in 7.0 mi West 11.5 mph - N/A   Overcast
10:15 PM 32.5 °F 22.7 °F 29.8 °F 90% 29.79 in 10.0 mi West 13.8 mph 18.4 mph N/A   Overcast
10:35 PM 32.0 °F 23.6 °F 30.2 °F 93% 29.80 in 10.0 mi West 10.4 mph 16.1 mph N/A   Overcast
11:15 PM 32.2 °F 23.2 °F 29.1 °F 88% 29.81 in 10.0 mi West 11.5 mph 18.4 mph N/A   Overcast
11:35 PM 32.0 °F 22.1 °F 28.9 °F 88% 29.81 in 10.0 mi West 13.8 mph 19.6 mph N/A   Overcast
11:55 PM 32.0 °F 21.6 °F 28.4 °F 87% 29.81 in 10.0 mi West 15.0 mph 19.6 mph N/A   Overcast